Location: Bagnolo San Vito
(45.0833°N, 10.8833°E)
Time: 22:28:46
(UTC+00:00)

Cosmos 1666 - Pass Details

Date: 03 March 2021
Orbit: 497 x 518 km, 82.5° (Epoch: 17 April)

Event Time Altitude Azimuth Distance (km) Brightness Sun altitude
Rises 18:27:51 0° 173° (S) 2,571 6.1 -15.1°
Reaches altitude 10° 18:30:00 10° 168° (SSE) 1,694 5.1 -15.5°
Maximum altitude 18:33:33 46° 94° (E) 677 2.8 -16.1°
Drops below altitude 10° 18:37:09 10° 20° (NNE) 1,714 5.2 -16.7°
Sets 18:39:20 0° 15° (NNE) 2,606 6.2 -17.1°
